�N����,����,����,����,����,�C��,���x,�~����,�S�V����,�ő�u�ԕ���,,,
,,,,,,,,,����,����,����,�N��
yyyy/mm/dd,hh:mm:ss,(16),16����,m/s,��,%,mm,KW/�u,(16),16����,m/s,Time
2013/1/1,1:00:00,270,��,5.8,-5.5,60,0,0,270,��,18,5
2013/1/1,2:00:00,248,���쐼,3.6,-5.4,58.8,0,0,293,���k��,10.8,30
2013/1/1,3:00:00,270,��,6,-5,53,0,0,270,��,12.8,59
2013/1/1,4:00:00,248,���쐼,8.5,-5.7,48.1,0,0,270,��,18.1,30
2013/1/1,5:00:00,248,���쐼,6.1,-6.1,48.9,0,0,248,���쐼,14.6,23
2013/1/1,6:00:00,248,���쐼,4.9,-6.6,50.2,0,0,270,��,11,17
2013/1/1,7:00:00,315,�k��,1.2,-8.2,53,0,0.01,248,���쐼,11.1,4
2013/1/1,8:00:00,315,�k��,1.1,-6.6,48.9,0,0.08,23,�k�k��,4.3,5
2013/1/1,9:00:00,270,��,6.6,-4.3,39.8,0,0.24,270,��,13.2,57
2013/1/1,10:00:00,270,��,7.2,-3.3,36.9,0,0.38,180,��,12.8,3
2013/1/1,11:00:00,270,��,8.7,-2.9,36.7,0,0.47,270,��,16,51
2013/1/1,12:00:00,270,��,7.8,-2.3,37.1,0,0.51,270,��,13.7,2
2013/1/1,13:00:00,248,���쐼,7.6,-2,36.5,0,0.48,248,���쐼,13.8,30
2013/1/1,14:00:00,248,���쐼,5.3,-2,34.6,0,0.39,248,���쐼,13,0
2013/1/1,15:00:00,248,���쐼,5,-2.7,40.8,0,0.25,248,���쐼,8.7,49
2013/1/1,16:00:00,248,���쐼,4.8,-3.7,43.8,0,0.06,248,���쐼,9.5,12
2013/1/1,17:00:00,270,��,1.9,-5.1,49,0,0.01,248,���쐼,7.6,26
2013/1/1,18:00:00,248,���쐼,3.2,-5.2,53.2,0,0,225,�쐼,7.5,37
2013/1/1,19:00:00,248,���쐼,6.2,-4,48.8,0,0,270,��,10.6,38
2013/1/1,20:00:00,248,���쐼,5.7,-3.8,47.7,0,0,270,��,12.3,35
2013/1/1,21:00:00,270,��,2.1,-11.7,72,0,0,203,��쐼,8.2,6
2013/1/1,22:00:00,270,��,1.2,-12.5,76.5,0,0,248,���쐼,7.8,34
2013/1/1,23:00:00,293,���k��,2.4,-11.1,76.6,0,0,248,���쐼,4.5,5
2013/1/1,0:00:00,270,��,1.5,-15.4,76.1,0,0,293,���k��,3.4,2
2013/1/2,1:00:00,270,��,3,-14.1,67.1,0,0,248,���쐼,5.1,24
2013/1/2,2:00:00,270,��,3.9,-16.9,80.5,0,0.01,270,��,5.2,59
2013/1/2,3:00:00,90,��,2.4,-12.2,65.8,0,0,248,���쐼,6,10
2013/1/2,4:00:00,23,�k�k��,1.8,-12.3,78.6,0,0,68,���k��,3.9,4
2013/1/2,5:00:00,360,�k,1.9,-12.4,76.9,0,0,45,�k��,3,3
2013/1/2,6:00:00,270,��,1.4,-11.1,78.6,0,0,23,�k�k��,2.8,17
2013/1/2,7:00:00,248,���쐼,2,-8.4,67.3,0,0.01,293,���k��,2.8,34
2013/1/2,8:00:00,270,��,0.6,-8.8,91.3,0,0.02,315,�k��,3.2,7
2013/1/2,9:00:00,270,��,2,-7.8,91.7,0,0.09,90,��,2.7,59
2013/1/2,10:00:00,315,�k��,2,-6.5,90.9,0,0.17,315,�k��,4.1,47
2013/1/2,11:00:00,315,�k��,2.5,-5.5,89.9,0,0.23,315,�k��,5.2,48
2013/1/2,12:00:00,315,�k��,2.2,-4.7,79.8,0,0.46,338,�k�k��,4.4,21
2013/1/2,13:00:00,113,���쓌,0.9,-4.3,86.1,0,0.42,360,�k,4.4,21
2013/1/2,14:00:00,113,���쓌,0.9,-3.4,80.3,0.5,0.21,180,��,2.4,19
2013/1/2,15:00:00,360,�k,1,-4.1,86,0,0.09,45,�k��,1.6,28
2013/1/2,16:00:00,90,��,0.6,-4.6,89.4,0,0.02,90,��,2.3,31
2013/1/2,17:00:00,23,�k�k��,1.4,-4.4,90.5,0.5,0,45,�k��,2.2,58
2013/1/2,18:00:00,23,�k�k��,2.5,-4,92.8,0,0,23,�k�k��,3.9,51
2013/1/2,19:00:00,270,��,1.9,-4.4,97.8,0,0,23,�k�k��,4.3,23
2013/1/2,20:00:00,360,�k,5.5,-4.1,96.8,0,0,180,��,12.6,48
2013/1/2,21:00:00,270,��,3.1,-4.8,93.2,0,0,248,���쐼,8.2,2
2013/1/2,22:00:00,180,��,1,-10.2,95.4,0,0,45,�k��,12.7,18
2013/1/2,23:00:00,248,���쐼,2.5,-6.5,95,0,0,248,���쐼,4.5,35
2013/1/2,0:00:00,248,���쐼,5.1,-4.2,70.1,0,0,248,���쐼,8.4,55
2013/1/3,1:00:00,248,���쐼,6.5,-4,59.9,0,0,270,��,10.8,17
2013/1/3,2:00:00,248,���쐼,6.7,-4.8,77.4,0,0,270,��,13,43
2013/1/3,3:00:00,180,�É�,0.2,-9.3,92.8,0,0,270,��,9.2,0
2013/1/3,4:00:00,293,���k��,0.6,-15.1,91.9,0,0.01,225,�쐼,2.4,23
2013/1/3,5:00:00,248,���쐼,1.1,-17.5,89.3,0,0.01,270,��,2.6,28
2013/1/3,6:00:00,248,���쐼,2.8,-15,92.2,0,0,203,��쐼,4.9,52
2013/1/3,7:00:00,248,���쐼,5.1,-7.9,56.4,0,0.01,248,���쐼,8.3,59
2013/1/3,8:00:00,225,�쐼,1.3,-7.8,46.5,0,0.07,225,�쐼,7.4,2
2013/1/3,9:00:00,248,���쐼,6.5,-5,42.8,0,0.24,248,���쐼,11.3,59
2013/1/3,10:00:00,270,��,6.7,-5,44.1,0,0.29,225,�쐼,11,28
2013/1/3,11:00:00,270,��,7.8,-4.6,43.2,0,0.4,270,��,11.6,40
2013/1/3,12:00:00,225,�쐼,8.2,-4.3,39.5,0,0.51,270,��,13.8,38
2013/1/3,13:00:00,248,���쐼,6.7,-4.4,38.4,0,0.48,270,��,14.7,4
2013/1/3,14:00:00,90,��,6.6,-4.5,37.1,0,0.38,113,���쓌,13.8,14
2013/1/3,15:00:00,45,�k��,4.6,-5,39.2,0,0.24,270,��,11.9,4
2013/1/3,16:00:00,68,���k��,5.6,-6.3,43.7,0,0.08,338,�k�k��,9,29
2013/1/3,17:00:00,338,�k�k��,1.6,-8,45.9,0,0.01,45,�k��,7.7,0
2013/1/3,18:00:00,270,��,0.7,-13,61.2,0,0,23,�k�k��,3.2,4
2013/1/3,19:00:00,248,���쐼,1.5,-13.5,79.8,0,0,113,���쓌,6,16
2013/1/3,20:00:00,270,��,2.1,-18.3,79.3,0,0,270,��,3.1,58
2013/1/3,21:00:00,270,��,1.5,-19.7,78.4,0,0,270,��,3.3,9
2013/1/3,22:00:00,113,���쓌,2.5,-17.1,78.1,0,0.01,113,���쓌,3.5,53
2013/1/3,23:00:00,45,�k��,2.3,-18.3,77.2,0,0.01,270,��,3.5,13
2013/1/3,0:00:00,45,�k��,2.5,-19.5,82.7,0,0.01,293,���k��,3.3,4
2013/1/4,1:00:00,248,���쐼,2.4,-20,80.5,0,0.01,270,��,3.5,53
2013/1/4,2:00:00,45,�k��,2.3,-18.2,78.7,0,0.01,113,���쓌,3.9,27
2013/1/4,3:00:00,23,�k�k��,2.5,-20.2,79.8,0,0.01,135,�쓌,4.2,29
2013/1/4,4:00:00,23,�k�k��,1.9,-20.9,76.4,0,0.01,270,��,4.5,25
2013/1/4,5:00:00,360,�k,2.3,-18.4,75.7,0,0.01,23,�k�k��,4.3,37
2013/1/4,6:00:00,23,�k�k��,2.3,-21.5,88.4,0,0.01,113,���쓌,2.9,53
2013/1/4,7:00:00,45,�k��,3.2,-18.8,79.8,0,0.01,23,�k�k��,5,44
2013/1/4,8:00:00,45,�k��,4,-14.1,66.8,0,0.06,45,�k��,5.3,54
2013/1/4,9:00:00,45,�k��,2.4,-14.4,69,0,0.2,360,�k,5.5,7
2013/1/4,10:00:00,338,�k�k��,2.4,-9.9,56.3,0,0.35,180,��,3.6,50
2013/1/4,11:00:00,338,�k�k��,0.7,-6.7,43.4,0,0.46,338,�k�k��,2.5,1
2013/1/4,12:00:00,360,�k,1.9,-6.4,42.3,0,0.5,203,��쐼,3.7,38
2013/1/4,13:00:00,338,�k�k��,3.5,-6.3,34.9,0,0.47,68,���k��,5.8,59
2013/1/4,14:00:00,360,�k,3.1,-6.4,39.2,0,0.38,315,�k��,5.9,1
2013/1/4,15:00:00,360,�k,4,-7.2,47.5,0,0.14,360,�k,6.5,58
2013/1/4,16:00:00,338,�k�k��,1.7,-9.1,58.9,0,0.05,360,�k,6.1,11
2013/1/4,17:00:00,338,�k�k��,2.2,-9.6,63,0,0.01,315,�k��,4.2,58
2013/1/4,18:00:00,225,�쐼,2.7,-12.5,70.9,0,0,338,�k�k��,5.2,14
2013/1/4,19:00:00,68,���k��,2.6,-14.7,80.7,0,0,135,�쓌,4.1,35
2013/1/4,20:00:00,225,�쐼,2.8,-17.8,85.9,0,0,23,�k�k��,4.2,8
2013/1/4,21:00:00,270,��,2.7,-18.7,88.3,0,0,23,�k�k��,3.8,44
2013/1/4,22:00:00,338,�k�k��,2.4,-18.5,90.2,0,0,90,��,3.8,59
2013/1/4,23:00:00,45,�k��,2.5,-20.6,87.2,0,0.01,23,�k�k��,4.2,5
2013/1/4,0:00:00,45,�k��,3.4,-17.7,90.4,0,0.01,45,�k��,4.5,55
2013/1/5,1:00:00,45,�k��,2.9,-20.6,86.2,0,0.01,248,���쐼,4.8,2
2013/1/5,2:00:00,270,��,4,-21.5,84.9,0,0,180,��,4.9,59
2013/1/5,3:00:00,45,�k��,3.3,-20.4,86.2,0,0.01,68,���k��,4.5,0
2013/1/5,4:00:00,293,���k��,2.6,-20.9,84.8,0,0.01,23,�k�k��,4.2,0
2013/1/5,5:00:00,248,���쐼,3.7,-23.7,82.6,0,0.01,360,�k,5.2,17
2013/1/5,6:00:00,23,�k�k��,2.9,-23.7,82,0,0.01,45,�k��,4.5,48
2013/1/5,7:00:00,248,���쐼,2,-23,83.6,0,0.01,45,�k��,3.5,7
2013/1/5,8:00:00,270,��,1.3,-21.1,83.3,0,0.08,248,���쐼,5.8,6
2013/1/5,9:00:00,315,�k��,0.4,-16.1,68.7,0,0.25,270,��,4.7,29
2013/1/5,10:00:00,270,��,1,-12.8,66.3,0,0.39,270,��,3.8,5
2013/1/5,11:00:00,270,��,1.1,-8.9,58.3,0,0.48,225,�쐼,4.4,17
2013/1/5,12:00:00,90,��,0.7,-4.7,58.8,0,0.52,158,��쓌,1.4,59
2013/1/5,13:00:00,68,���k��,1.2,-5.1,69,0,0.49,68,���k��,2.4,27
2013/1/5,14:00:00,45,�k��,1.5,-4.7,76.5,0,0.4,45,�k��,2.5,49
2013/1/5,15:00:00,45,�k��,1.1,-5.5,79.9,0,0.25,68,���k��,2.4,3
2013/1/5,16:00:00,360,�k,0.9,-11.2,91.6,0,0.08,45,�k��,1.9,28
2013/1/5,17:00:00,270,��,1.6,-13.2,94.9,0,0.01,270,��,3.2,33
2013/1/5,18:00:00,270,��,2.5,-15.6,90.4,0,0,270,��,3.7,35
2013/1/5,19:00:00,270,��,2.9,-13.7,93.3,0,0,270,��,4.7,49
2013/1/5,20:00:00,270,��,2.2,-14.8,91.9,0,0,270,��,3.8,15
2013/1/5,21:00:00,248,���쐼,2.1,-16.5,88.5,0,0,270,��,4.2,15
2013/1/5,22:00:00,225,�쐼,2.1,-16.2,90.2,0,0,248,���쐼,3.3,28
2013/1/5,23:00:00,203,��쐼,2.8,-8.6,96.6,0,0.01,203,��쐼,6.1,55
2013/1/5,0:00:00,180,��,2,-2.3,99.5,0,0,203,��쐼,6.8,26
2013/1/6,1:00:00,203,��쐼,4.4,-0.5,94.3,0,0,180,��,8.7,58
2013/1/6,2:00:00,203,��쐼,4,1,82.1,0,0,180,��,9.3,4
2013/1/6,3:00:00,180,��,6.7,0.3,97.3,0,0,203,��쐼,12.5,37
2013/1/6,4:00:00,180,��,4.9,0.6,99.1,0,0,180,��,11.1,14
2013/1/6,5:00:00,315,�k��,4.6,-5,96.2,0,0,180,��,8.1,6
2013/1/6,6:00:00,270,��,2.5,-8.5,90.3,0,0,338,�k�k��,7.4,0
2013/1/6,7:00:00,338,�k�k��,1.3,-8.3,91,0,0.01,203,��쐼,5.3,23
2013/1/6,8:00:00,315,�k��,2.2,-8.2,94.2,0,0.03,158,��쓌,6.4,32
2013/1/6,9:00:00,270,��,1.4,-8.1,90.2,0,0.1,338,�k�k��,4.6,26
2013/1/6,10:00:00,270,��,1.7,-4.6,78.7,0,0.23,293,���k��,4.8,23
2013/1/6,11:00:00,248,���쐼,6,-3.5,63.4,0,0.36,248,���쐼,10.7,59
2013/1/6,12:00:00,270,��,4.2,-3.2,56.8,0,0.44,270,��,10,0
2013/1/6,13:00:00,338,�k�k��,2.4,-3.7,52.7,0,0.27,248,���쐼,5.5,0
2013/1/6,14:00:00,338,�k�k��,3.3,-4.1,52.7,0,0.38,315,�k��,7.4,19
2013/1/6,15:00:00,315,�k��,4.2,-5.2,46.7,0,0.24,293,���k��,9.3,47
2013/1/6,16:00:00,360,�k,1.8,-7.6,49.5,0,0.09,315,�k��,7.4,1
2013/1/6,17:00:00,270,��,0.9,-14.9,69.9,0,0.01,360,�k,4,0
2013/1/6,18:00:00,248,���쐼,1.5,-15.1,71.4,0,0,225,�쐼,2.9,15
2013/1/6,19:00:00,360,�k,0.9,-19.5,81.1,0,0,270,��,2.3,4
2013/1/6,20:00:00,270,��,2.1,-18,87.2,0,0,270,��,3.8,44
2013/1/6,21:00:00,270,��,2.9,-18.5,78.4,0,0.01,315,�k��,4.9,34
2013/1/6,22:00:00,270,��,3,-20.1,83.1,0,0,270,��,4.3,27
2013/1/6,23:00:00,270,��,2.9,-19.8,84.2,0,0,270,��,4.1,38
2013/1/6,0:00:00,270,��,1.5,-19.8,84.7,0,0.01,270,��,3.4,3
2013/1/7,1:00:00,270,��,2.5,-20.8,86.7,0,0.01,270,��,4.5,43
2013/1/7,2:00:00,270,��,2,-20.6,84.2,0,0.01,68,���k��,4.4,8
2013/1/7,3:00:00,270,��,2,-21,83.8,0,0.01,270,��,4.5,20
2013/1/7,4:00:00,270,��,3.8,-21.6,84.1,0,0.01,293,���k��,5.1,23
2013/1/7,5:00:00,270,��,3.1,-22,83.7,0,0.01,45,�k��,4.5,0
2013/1/7,6:00:00,270,��,3.1,-20.7,82.8,0,0.01,270,��,4.8,49
2013/1/7,7:00:00,270,��,2.5,-21.4,85.3,0,0.01,270,��,4.3,32
2013/1/7,8:00:00,270,��,2.8,-19.2,80.4,0,0.08,270,��,4.2,29
2013/1/7,9:00:00,293,���k��,1.1,-17.5,76.8,0,0.25,293,���k��,3.5,16
2013/1/7,10:00:00,315,�k��,0.5,-13.6,73.3,0,0.39,270,��,2.5,13
2013/1/7,11:00:00,360,�k,0.3,-8.6,63.1,0,0.48,248,���쐼,1.4,12
2013/1/7,12:00:00,68,���k��,0.3,-4.4,48,0,0.52,23,�k�k��,1.6,40
2013/1/7,13:00:00,203,��쐼,0.5,-4.5,37.1,0,0.49,135,�쓌,2.7,47
2013/1/7,14:00:00,68,���k��,1.2,-5.1,46.7,0,0.4,68,���k��,2.5,29
2013/1/7,15:00:00,90,��,0.8,-5.1,48.5,0,0.26,68,���k��,2.3,37
2013/1/7,16:00:00,23,�k�k��,0.6,-12.1,55.3,0,0.09,45,�k��,1.6,37
2013/1/7,17:00:00,293,���k��,0.9,-13.6,76.8,0,0.01,248,���쐼,2.8,25
2013/1/7,18:00:00,338,�k�k��,0.5,-14,77.8,0,0,293,���k��,2.5,8
2013/1/7,19:00:00,293,���k��,1.9,-16.5,85.1,0,0,270,��,2.9,35
2013/1/7,20:00:00,270,��,3.3,-18.6,81.3,0,0,270,��,4.4,59
2013/1/7,21:00:00,270,��,2.4,-17.3,82.4,0,0.01,293,���k��,4.3,1
2013/1/7,22:00:00,293,���k��,2.5,-19.8,83.1,0,0.01,293,���k��,3.5,29
2013/1/7,23:00:00,293,���k��,1.9,-17.1,86.8,0,0.01,293,���k��,3.3,26
2013/1/7,0:00:00,270,��,1.7,-17.8,86.5,0,0.01,293,���k��,2.8,23
2013/1/8,1:00:00,270,��,3.4,-18.6,83.7,0,0.01,270,��,4.3,46
2013/1/8,2:00:00,270,��,2.5,-19,85.2,0,0.01,293,���k��,3.9,9
2013/1/8,3:00:00,270,��,3.2,-19.2,86.4,0,0.01,293,���k��,5,38
2013/1/8,4:00:00,270,��,3.1,-20.1,86.4,0,0.01,270,��,4.3,1
2013/1/8,5:00:00,270,��,2.3,-20.1,83.5,0,0.01,270,��,4,2
2013/1/8,6:00:00,270,��,2.9,-20.5,84.3,0,0.01,293,���k��,4.5,13
2013/1/8,7:00:00,293,���k��,1.3,-23,84.2,0,0.01,270,��,3.5,7
2013/1/8,8:00:00,270,��,2.4,-20.5,79.3,0,0.08,270,��,3.6,53
2013/1/8,9:00:00,293,���k��,1.3,-16.4,76.5,0,0.24,180,��,3.4,24
2013/1/8,10:00:00,293,���k��,2,-9.7,58,0,0.39,293,���k��,2.7,49
2013/1/8,11:00:00,45,�k��,0.6,-5.6,58.7,0,0.49,315,�k��,2.7,10
2013/1/8,12:00:00,45,�k��,1.1,-4.6,44.3,0,0.53,45,�k��,1.9,46
2013/1/8,13:00:00,203,��쐼,0.4,-5,38.4,0,0.5,225,�쐼,1.4,59
2013/1/8,14:00:00,90,��,3.5,-4.9,55.5,0,0.41,90,��,4.7,53
2013/1/8,15:00:00,45,�É�,0.2,-3.7,44.9,0,0.26,90,��,4.1,2
2013/1/8,16:00:00,270,��,1.1,-12.2,55.3,0,0.1,270,��,1.8,31
2013/1/8,17:00:00,270,��,1.5,-15.3,82.7,0,0.01,293,���k��,2,59
2013/1/8,18:00:00,270,��,2.1,-13.9,72.1,0,0,270,��,2.8,59
2013/1/8,19:00:00,270,��,1.8,-15,75.2,0,0,293,���k��,3.5,43
2013/1/8,20:00:00,270,��,2.5,-16.2,76.3,0,0,270,��,4.4,23
2013/1/8,21:00:00,270,��,2.7,-14.4,82,0,0,315,�k��,4.2,57
2013/1/8,22:00:00,270,��,3.5,-16.9,77.2,0,0.01,225,�쐼,4.6,45
2013/1/8,23:00:00,293,���k��,1.3,-18.5,79.9,0,0.01,315,�k��,4.6,11
2013/1/8,0:00:00,270,��,2.5,-20.8,79.7,0,0.01,270,��,3.5,57
2013/1/9,1:00:00,270,��,2.3,-22.9,80.8,0,0.01,270,��,3.7,45
2013/1/9,2:00:00,270,��,3,-23.3,83.5,0,0.01,293,���k��,3.9,56
2013/1/9,3:00:00,315,�k��,1.2,-20.3,81.6,0,0.01,270,��,3.7,6
2013/1/9,4:00:00,270,��,1.5,-20.5,82.6,0,0.01,270,��,3.7,59
2013/1/9,5:00:00,270,��,2.1,-20.6,85.9,0,0.01,225,�쐼,3.4,0
2013/1/9,6:00:00,270,��,2.2,-23.1,88.4,0,0.01,270,��,4,9
2013/1/9,7:00:00,270,��,3.3,-20.2,83.7,0,0.01,293,���k��,5.6,54
2013/1/9,8:00:00,270,��,1.8,-20,78.1,0,0.09,293,���k��,3.2,29
2013/1/9,9:00:00,315,�k��,0.9,-15.9,75.8,0,0.25,270,��,3.2,11
2013/1/9,10:00:00,270,��,1.2,-12.6,66.3,0,0.39,270,��,3.3,24
2013/1/9,11:00:00,90,�É�,0,-9.1,54.1,0,0.49,90,��,2.7,36
2013/1/9,12:00:00,45,�k��,0.7,-4.9,55.3,0,0.52,45,�k��,1.2,53
2013/1/9,13:00:00,90,��,2.1,-5.5,57.6,0,0.49,68,���k��,3.3,41
2013/1/9,14:00:00,23,�k�k��,1.7,-5.9,53.4,0,0.4,23,�k�k��,2.5,54
2013/1/9,15:00:00,45,�k��,1.9,-6.8,54.1,0,0.25,68,���k��,3.1,18
2013/1/9,16:00:00,23,�k�k��,1.3,-11.7,69.9,0,0.05,45,�k��,1.8,20
2013/1/9,17:00:00,293,���k��,1.1,-11.7,77.3,0,0.01,315,�k��,2.1,52
2013/1/9,18:00:00,315,�k��,3.3,-11.3,68.5,0,0,270,��,6.5,52
2013/1/9,19:00:00,293,���k��,2.9,-14.4,78.7,0,0,270,��,6.3,6
2013/1/9,20:00:00,293,���k��,2.5,-15,80.6,0,0,270,��,5.6,44
2013/1/9,21:00:00,270,��,2.7,-16.7,74.9,0,0.01,203,��쐼,4.4,29
2013/1/9,22:00:00,270,��,2.8,-20.1,82.3,0,0.01,293,���k��,4.1,51
2013/1/9,23:00:00,270,��,4,-15.2,79.5,0,0.01,180,��,5.4,54
2013/1/9,0:00:00,270,��,3.6,-13.4,78.5,0,0.01,203,��쐼,5.5,48
2013/1/10,1:00:00,248,���쐼,4.3,-14.5,81.8,0,0.01,248,���쐼,5.8,28
2013/1/10,2:00:00,248,���쐼,2.7,-19.3,86.7,0,0.01,293,���k��,5.8,21
2013/1/10,3:00:00,315,�k��,3.9,-14.7,75.7,0,0.01,338,�k�k��,5.5,49
2013/1/10,4:00:00,360,�k,3.9,-16,75.8,0,0.01,293,���k��,5.8,30
2013/1/10,5:00:00,248,���쐼,3.5,-20.1,83.9,0,0.01,293,���k��,5.8,16
2013/1/10,6:00:00,293,���k��,1.9,-18.7,82.9,0,0.01,315,�k��,5.3,8
2013/1/10,7:00:00,315,�k��,1.2,-17.2,79.6,0,0.01,338,�k�k��,3.9,39
2013/1/10,8:00:00,293,���k��,1.6,-16.4,71.7,0,0.08,113,���쓌,5.1,24
2013/1/10,9:00:00,293,���k��,1.9,-12.6,67.2,0,0.24,248,���쐼,3.2,13
2013/1/10,10:00:00,270,��,1.3,-9.6,63,0,0.39,293,���k��,4,4
2013/1/10,11:00:00,113,���쓌,0.4,-6.5,54,0,0.49,45,�k��,1.7,59
2013/1/10,12:00:00,45,�k��,1.7,-5.6,52.8,0,0.53,23,�k�k��,3,27
2013/1/10,13:00:00,90,�É�,0.2,-3.9,49.2,0,0.5,68,���k��,1.6,0
2013/1/10,14:00:00,270,��,0.8,-7.3,49.3,0,0.41,248,���쐼,2.3,58
2013/1/10,15:00:00,225,�쐼,1.3,-7.2,48.6,0,0.26,225,�쐼,2.5,48
2013/1/10,16:00:00,270,��,1.5,-10.7,53.5,0,0.09,203,��쐼,2.9,8
2013/1/10,17:00:00,270,��,1.8,-17.2,70.1,0,0.01,270,��,2.2,55
2013/1/10,18:00:00,270,��,1.4,-15.8,77.9,0,0,270,��,2.7,31
2013/1/10,19:00:00,248,���쐼,3.5,-15,78.2,0,0,158,��쓌,4.6,55
2013/1/10,20:00:00,315,�k��,2.3,-16.1,81.2,0,0,225,�쐼,4.4,8
2013/1/10,21:00:00,293,���k��,0.8,-17.4,81.7,0,0.01,293,���k��,3.6,11
2013/1/10,22:00:00,270,��,3.2,-17.9,71.1,0,0.01,270,��,5.2,46
2013/1/10,23:00:00,315,�k��,1.6,-15.8,82.1,0,0.01,225,�쐼,5.7,13
2013/1/10,0:00:00,248,���쐼,1,-17.3,92.2,0,0.01,90,��,4.1,5
2013/1/11,1:00:00,270,��,2.1,-18.5,93.3,0,0.01,270,��,2.5,59
2013/1/11,2:00:00,248,���쐼,1.7,-20.2,91.1,0,0.01,203,��쐼,3.3,30
2013/1/11,3:00:00,270,��,0.7,-17.2,92.5,0,0.01,293,���k��,2.8,24
2013/1/11,4:00:00,248,���쐼,0.9,-17.3,90.8,0,0.01,248,���쐼,2.4,11
2013/1/11,5:00:00,135,�쓌,2.5,-22.8,85.3,0,0.01,270,��,3.4,47
2013/1/11,6:00:00,270,��,1.4,-20.9,87,0,0.01,315,�k��,3.6,39
2013/1/11,7:00:00,90,��,2.6,-20.9,86.5,0,0.01,270,��,3.9,38
2013/1/11,8:00:00,248,���쐼,2.5,-20,88.2,0,0.08,270,��,4.7,27
2013/1/11,9:00:00,270,��,0.9,-16.9,88.9,0,0.25,248,���쐼,3.7,10
2013/1/11,10:00:00,248,���쐼,1.8,-13.8,86,0,0.4,270,��,3.1,24
2013/1/11,11:00:00,338,�k�k��,0.3,-6.1,58.3,0,0.5,270,��,2.8,1
2013/1/11,12:00:00,113,���쓌,0.7,-4.3,41.6,0,0.53,180,��,1.9,46
2013/1/11,13:00:00,203,��쐼,0.6,-3.4,36.1,0,0.5,135,�쓌,2.8,36
2013/1/11,14:00:00,338,�k�k��,1.9,-4.4,35.5,0,0.42,338,�k�k��,5.1,35
2013/1/11,15:00:00,315,�k��,1.9,-5.3,38.1,0,0.27,338,�k�k��,3.6,9
2013/1/11,16:00:00,270,��,0.4,-11.3,50.8,0,0.1,338,�k�k��,1.5,0
2013/1/11,17:00:00,270,��,1.3,-14,70,0,0.01,270,��,2,47
2013/1/11,18:00:00,248,���쐼,1.9,-14.7,78.2,0,0,270,��,2.5,57
2013/1/11,19:00:00,270,��,2.2,-15.8,75.5,0,0,270,��,3.2,59
2013/1/11,20:00:00,270,��,2.1,-17.5,79.4,0,0,293,���k��,4.4,38
2013/1/11,21:00:00,270,��,2.5,-19.5,81.5,0,0,270,��,3.5,52
2013/1/11,22:00:00,248,���쐼,1.3,-18.7,86.1,0,0.01,270,��,3.8,20
2013/1/11,23:00:00,248,���쐼,1.9,-20.1,86.2,0,0.01,270,��,3.7,41
2013/1/11,0:00:00,270,��,1.9,-20.6,85.3,0,0.01,270,��,4.2,25
2013/1/12,1:00:00,270,��,1.7,-20.2,84.3,0,0.01,225,�쐼,4.5,6
2013/1/12,2:00:00,225,�쐼,3.1,-20.4,84.8,0,0.01,270,��,4.4,21
2013/1/12,3:00:00,270,��,2.6,-20,86.8,0,0.01,270,��,4.9,49
2013/1/12,4:00:00,248,���쐼,2.4,-19.8,82.5,0,0.01,270,��,4.4,18
2013/1/12,5:00:00,270,��,2.5,-19.9,85,0,0.01,270,��,4.6,56
2013/1/12,6:00:00,293,���k��,2.3,-19.5,82.8,0,0.01,270,��,3.9,36
2013/1/12,7:00:00,270,��,2.8,-17.6,86.5,0,0.01,270,��,4,55
2013/1/12,8:00:00,270,��,3.5,-16.5,82.4,0,0.08,270,��,4.3,59
2013/1/12,9:00:00,248,���쐼,1.9,-13.9,79.6,0,0.23,270,��,4.2,1
2013/1/12,10:00:00,270,��,2.4,-10.4,72.5,0,0.36,270,��,2.8,42
2013/1/12,11:00:00,270,��,0.3,-6.5,68.6,0,0.45,293,���k��,3.6,55
2013/1/12,12:00:00,360,�É�,0.2,-2.1,63.3,0,0.45,360,�k,1.8,7
2013/1/12,13:00:00,113,���쓌,1.5,-1.7,52.5,0,0.44,90,��,2.5,54
2013/1/12,14:00:00,90,��,1.8,-3,62.2,0,0.31,90,��,3.3,47
2013/1/12,15:00:00,45,�k��,1.6,-2.3,59.6,0,0.21,45,�k��,3.1,17
2013/1/12,16:00:00,360,�k,0.3,-4.1,68.7,0,0.05,23,�k�k��,2.6,0
2013/1/12,17:00:00,270,��,1.7,-6,73.6,0,0.01,248,���쐼,2.3,57
2013/1/12,18:00:00,315,�k��,2.5,-4.7,61.3,0,0,315,�k��,3.5,53
2013/1/12,19:00:00,315,�k��,2.1,-5.6,64.6,0,0,315,�k��,3.2,50
2013/1/12,20:00:00,270,��,2,-10.9,84.2,0,0,270,��,3.7,28
2013/1/12,21:00:00,270,��,1.4,-12.6,87.4,0,0,248,���쐼,2.5,22
2013/1/12,22:00:00,270,��,2,-14.5,90.6,0,0,270,��,3,59
2013/1/12,23:00:00,270,��,0.9,-13.7,87,0,0,293,���k��,3.1,2
2013/1/12,0:00:00,270,��,1.4,-13.8,88.7,0,0.01,270,��,3.8,6
2013/1/13,1:00:00,270,��,3,-12.6,89.6,0,0,270,��,4.1,56
2013/1/13,2:00:00,270,��,2.9,-10.7,88.8,0,0,315,�k��,4.2,49
2013/1/13,3:00:00,270,��,2.5,-9.1,93.5,0,0.01,270,��,4.1,11
2013/1/13,4:00:00,248,���쐼,2.6,-8.4,94,0,0,68,���k��,3.8,59
2013/1/13,5:00:00,315,�k��,2.8,-8.4,96.3,0,0,315,�k��,5.7,54
2013/1/13,6:00:00,338,�k�k��,1.5,-11.9,86.2,0,0,135,�쓌,7.8,11
2013/1/13,7:00:00,270,��,2.4,-8.8,91.5,0,0.01,248,���쐼,4.5,57
2013/1/13,8:00:00,248,���쐼,3.4,-6.9,88.6,0,0.06,338,�k�k��,7,24
2013/1/13,9:00:00,293,���k��,2.5,-5.1,76.2,0,0.19,248,���쐼,6.2,2
2013/1/13,10:00:00,360,�k,3.1,-2.3,58,0,0.38,360,�k,5,43
2013/1/13,11:00:00,360,�k,2,-0.9,42.2,0,0.48,338,�k�k��,5.3,24
2013/1/13,12:00:00,360,�k,2.7,-0.9,41.5,0,0.51,315,�k��,5.4,23
2013/1/13,13:00:00,360,�k,3.1,-0.8,42.7,0,0.49,360,�k,5.1,58
2013/1/13,14:00:00,315,�k��,3,-1.2,41.8,0,0.42,315,�k��,6.2,38
2013/1/13,15:00:00,293,���k��,2.2,-2,50.1,0,0.28,315,�k��,6.2,9
2013/1/13,16:00:00,315,�k��,1.5,-4.4,60.3,0,0.11,315,�k��,3.4,19
2013/1/13,17:00:00,315,�k��,1.3,-7.7,75,0,0.01,135,�쓌,2.6,9
2013/1/13,18:00:00,338,�k�k��,1.8,-6,68.6,0,0,23,�k�k��,4.5,52
2013/1/13,19:00:00,270,��,1.1,-9.5,82.6,0,0,293,���k��,8.2,30
2013/1/13,20:00:00,90,��,0.5,-14.7,79.8,0,0,180,��,4,16
2013/1/13,21:00:00,270,��,2.4,-13.5,94,0,0,270,��,3.2,40
2013/1/13,22:00:00,270,��,0.6,-16.4,92.1,0,0.01,270,��,2.9,21
2013/1/13,23:00:00,270,��,2.5,-14.7,94.8,0,0.01,270,��,3.8,30
2013/1/13,0:00:00,248,���쐼,1.6,-16.3,91.5,0,0.01,135,�쓌,3.3,0
2013/1/14,1:00:00,248,���쐼,2,-15.8,92.2,0,0.01,293,���k��,4.4,7
2013/1/14,2:00:00,270,��,2.5,-12.4,95.2,0,0.01,270,��,4.3,49
2013/1/14,3:00:00,225,�쐼,3.1,-12.9,94.7,0,0.01,68,���k��,4.7,58
2013/1/14,4:00:00,338,�k�k��,3.7,-11.7,88.2,0,0.01,158,��쓌,5,55
2013/1/14,5:00:00,270,��,2.7,-14.1,85,0,0.01,90,��,4.9,1
2013/1/14,6:00:00,158,��쓌,3.3,-15,86.5,0,0.01,270,��,4.2,9
2013/1/14,7:00:00,90,��,3,-13.8,85.1,0,0.01,23,�k�k��,4.5,43
2013/1/14,8:00:00,293,���k��,1.8,-12.6,78,0,0.05,90,��,4.1,18
2013/1/14,9:00:00,23,�k�k��,3,-9.1,67.1,0,0.15,158,��쓌,4.4,39
2013/1/14,10:00:00,90,��,0.5,-8,67.4,0,0.22,158,��쓌,4.1,16
2013/1/14,11:00:00,45,�k��,1.8,-7.6,74.3,0,0.26,45,�k��,3.9,34
2013/1/14,12:00:00,45,�k��,1.5,-7.6,71.7,0,0.28,45,�k��,2.2,58
2013/1/14,13:00:00,45,�k��,2.4,-6.3,65.5,0,0.24,68,���k��,3.2,52
2013/1/14,14:00:00,45,�k��,2.4,-6.2,63.7,0,0.19,23,�k�k��,3.3,48
2013/1/14,15:00:00,45,�k��,2,-6.3,64.8,0,0.12,45,�k��,3.4,0
2013/1/14,16:00:00,23,�k�k��,2.1,-6.3,64.6,0,0.05,45,�k��,3.1,40
2013/1/14,17:00:00,293,���k��,1.9,-7.9,70.6,0,0.01,293,���k��,3.9,46
2013/1/14,18:00:00,293,���k��,2.4,-7.4,69.2,0,0,68,���k��,3.7,33
2013/1/14,19:00:00,315,�k��,1.8,-6.9,67.2,0,0,270,��,4,17
2013/1/14,20:00:00,293,���k��,3.3,-7.4,68.7,0,0,158,��쓌,5.4,59
2013/1/14,21:00:00,315,�k��,2.8,-7.9,69.5,0,0,180,��,5.7,41
2013/1/14,22:00:00,23,�k�k��,3.2,-7.9,71.4,0,0,225,�쐼,4.8,55
2013/1/14,23:00:00,270,��,4,-8.2,86.2,0,0,270,��,6.3,56
2013/1/14,0:00:00,315,�k��,3.2,-8.6,90.1,0,0,293,���k��,6.3,19
2013/1/15,1:00:00,338,�k�k��,3.8,-8.7,89.8,0,0,68,���k��,6.3,46
2013/1/15,2:00:00,270,��,3,-8.3,91.7,0,0,248,���쐼,6,4
2013/1/15,3:00:00,315,�k��,4,-8.1,89.7,0,0,315,�k��,6.6,51
2013/1/15,4:00:00,315,�k��,3,-8.4,85.9,0,0,68,���k��,6.1,37
2013/1/15,5:00:00,293,���k��,2.3,-9.5,87.7,0,0,315,�k��,6.2,0
2013/1/15,6:00:00,338,�k�k��,3.9,-9.6,69.6,0,0,338,�k�k��,6.6,51
2013/1/15,7:00:00,360,�k,1.6,-10.9,72.8,0,0.01,360,�k,5.6,11
2013/1/15,8:00:00,338,�k�k��,0.9,-11.4,76.5,0,0.05,360,�k,3.3,24
2013/1/15,9:00:00,360,�k,3,-9.4,66.4,0,0.2,338,�k�k��,5.1,58
2013/1/15,10:00:00,315,�k��,2.2,-8.3,58.5,0,0.38,338,�k�k��,4.8,45
2013/1/15,11:00:00,293,���k��,3.3,-7.4,48.6,0,0.5,270,��,6.3,50
2013/1/15,12:00:00,315,�k��,6.5,-5.8,38,0,0.54,338,�k�k��,11.3,55
2013/1/15,13:00:00,315,�k��,8.1,-5.6,41.3,0,0.52,315,�k��,15.2,46
2013/1/15,14:00:00,315,�k��,7.7,-5.2,41.7,0,0.44,315,�k��,16.4,55
2013/1/15,15:00:00,315,�k��,7.4,-5.5,40.9,0,0.3,225,�쐼,14.6,47
2013/1/15,16:00:00,315,�k��,7,-6.1,45.8,0,0.13,315,�k��,16.7,26
2013/1/15,17:00:00,338,�k�k��,5.5,-6.8,47.6,0,0.01,315,�k��,12.1,4
2013/1/15,18:00:00,338,�k�k��,5.8,-7.2,50,0,0,293,���k��,11.5,36
2013/1/15,19:00:00,338,�k�k��,5.7,-7.3,49.2,0,0,315,�k��,12.3,33
2013/1/15,20:00:00,338,�k�k��,3.9,-7.4,49.1,0,0,338,�k�k��,11.1,6
2013/1/15,21:00:00,315,�k��,4.3,-7.2,50.6,0,0,315,�k��,8.7,21
2013/1/15,22:00:00,293,���k��,5.8,-7.7,53.9,0,0.01,225,�쐼,10.1,58
2013/1/15,23:00:00,248,���쐼,3.1,-12.6,69.2,0,0,315,�k��,10.8,3
2013/1/15,0:00:00,270,��,4.3,-13.6,71.2,0,0.01,270,��,5.2,56
2013/1/16,1:00:00,270,��,3.7,-15,74.2,0,0.01,270,��,5.2,2
2013/1/16,2:00:00,270,��,2.9,-18.7,78,0,0.01,270,��,4.5,5
2013/1/16,3:00:00,248,���쐼,3.1,-14.6,79.5,0,0.01,315,�k��,4.7,52
2013/1/16,4:00:00,270,��,2.7,-15.1,79.2,0,0.01,293,���k��,5,38
2013/1/16,5:00:00,248,���쐼,2.6,-14.8,81.1,0,0.01,225,�쐼,4.3,58
2013/1/16,6:00:00,270,��,2.1,-19.2,84,0,0.01,270,��,3.8,42
2013/1/16,7:00:00,248,���쐼,1.8,-21.2,82.3,0,0.01,270,��,3,38
2013/1/16,8:00:00,248,���쐼,1.2,-18.6,80.9,0,0.08,270,��,3,24
2013/1/16,9:00:00,293,���k��,0.9,-14.7,68.9,0,0.23,270,��,2.2,20
2013/1/16,10:00:00,45,�k��,0.3,-9.9,64.1,0,0.38,270,��,2.5,12
2013/1/16,11:00:00,23,�k�k��,0.6,-7.6,60,0,0.48,23,�k�k��,1.6,37
2013/1/16,12:00:00,68,���k��,1.2,-5.5,64.5,0,0.5,113,���쓌,1.8,43
2013/1/16,13:00:00,90,��,1.4,-4.8,74.4,0,0.47,135,�쓌,2.7,45
2013/1/16,14:00:00,90,��,1.4,-5.4,72.3,0,0.31,113,���쓌,3.2,9
2013/1/16,15:00:00,113,���쓌,1.9,-5.9,65.7,0,0.25,90,��,3.4,44
2013/1/16,16:00:00,23,�k�k��,0.9,-9,73.6,0,0.1,113,���쓌,2.6,0
2013/1/16,17:00:00,293,���k��,0.8,-11.2,89.2,0,0.01,360,�k,1.4,18
2013/1/16,18:00:00,270,��,2,-12,85.6,0,0,293,���k��,2.5,54
2013/1/16,19:00:00,270,��,2.3,-11.9,86.3,0,0,270,��,3.4,30
2013/1/16,20:00:00,270,��,1.4,-12.9,86.5,0,0,225,�쐼,3.6,1
2013/1/16,21:00:00,23,�k�k��,1.1,-13.7,86.9,0,0.01,68,���k��,3.4,51